www.pogodaiklimat.ru

Погода и климат >> Архив погоды >> Индонезия >> Танджунгпинанг


ПОГОДА в Танджунгпинанге

  • Прогноз погоды в Танджунгпинанге
  • Монитор погоды в Танджунгпинанге

АРХИВ ПОГОДЫ в Танджунгпинанге

Время (UTC), дата Ветер
(напр.,м/с)
 
Видим.   Явления Облачность Т
(С)
Тd
(С)
f
(%)
Тe
(С)
Тes
(С)
Комфортность P
(гПа)
Po
(гПа)
Тmin
(С)
Tmax
(С)
R
(мм)
R24
(мм)
S
(см)
21 16.05 штиль 0 10 км зарница 6/3 600 м
[Cb cap Ac As Ci fib]
+26.4 +24.7 90 +37 +37 очень
душно
1010.5 1008.1
00 17.05 штиль 0 8000 м гроза без осадков 10/5 400 м
[Cb cap As op Cs]
+26.5 +25.2 93 +38 +39 очень
душно
1011.9 1009.5 +25.8 0.0
03 17.05 ЮЗ 4 10 км {гроза} 9/5 500 м
[Cb cap Ac As Ci fib]
+29.0 +24.7 78 +41 +45 опасность
перегрева
1013.5 1011.1
06 17.05 З 2 10 км гроза без осадков 9/6 400 м
[Cb cap Ac As Ci fib]
+28.0 +25.2 85 +41 +45 опасность
перегрева
1011.5 1009.2 0.5
09 17.05 Ю 4 10 км {гроза} 10/5 400 м
[Sc Ac As Ci fib]
+29.2 +25.0 78 +42 +43 опасность
перегрева
1009.5 1007.1
12 17.05 штиль 0 10 км {гроза} 8/3 500 м
[Cu med, cong Ac As Ci fib]
+28.0 +26.0 89 +42 +42 опасность
перегрева
1010.5 1008.2 +30.0
15 17.05 штиль 0 6000 м зарница 9/5 500 м
[Cb cap Ac As Ci fib]
+26.6 +25.2 92 +38 +38 очень
душно
1013.3 1010.9
18 17.05 штиль 0 8000 м зарница 9/5 500 м
[Cb cap Ac As Ci fib]
+25.6 +24.7 95 +36 +36 очень
душно
1011.9 1009.5
21 17.05 штиль 0 8000 м 8/3 500 м
[Cu med, cong Ac As Ci fib]
+25.2 +24.3 95 +35 +35 очень
душно
1010.2 1007.9
00 18.05 штиль 0 9000 м 8/3 500 м
[Cu med, cong Ac As Ci fib]
+25.6 +24.7 95 +36 +37 очень
душно
1010.5 1008.1 +24.8 0.3
03 18.05 ЮВ 3 10 км гроза без осадков 9/5 500 м
[Cb cap Ac trans Ci fib]
+28.2 +26.3 89 +43 +47 опасность
перегрева
1012.2 1009.9 0.6
06 18.05 ЮЗ 2 9000 м {гроза, дождь} 9/6 400 м
[Cu Sc Ac As Ci fib]
+28.3 +24.8 81 +40 +45 очень
душно
1010.5 1008.2 0.6
09 18.05 штиль 0 9000 м {гроза, дождь} 9/6 400 м
[Cu Sc Ac As Ci fib]
+29.3 +26.1 83 +44 +46 опасность
перегрева
1008.5 1006.2 0.0
12 18.05 штиль 0 8000 м {гроза, дождь} 8/3 500 м
[Cu med, cong Ac und Ci fib]
+27.2 +25.5 90 +40 +40 очень
душно
1010.2 1007.8 +30.5 0.0
15 18.05 СВ 2 6000 м 6/1 500 м
[Cu med, cong Ac und Ci fib]
+26.4 +25.3 94 +38 +38 очень
душно
1011.5 1009.1
18 18.05 ЮВ 2 5000 м слаб. дождь 10/6
[Cb cap As op Cs]
+25.8 +23.6 88 +35 +35 очень
душно
1011.2 1008.9 0.5
21 18.05 штиль 0 6000 м {дождь} 8/3 400 м
[Sc As op Ci fib]
+25.4 +24.8 96 +36 +36 очень
душно
1009.8 1007.5 1
00 19.05 штиль 0 9000 м гроза без осадков 9/5 400 м
[Cb cap As trans Ci ing]
+25.8 +24.9 95 +37 +37 очень
душно
1011.2 1008.9 +25.0 2
03 19.05 Ю 4 8000 м гроза без осадков 10/6
[Cb cap As op Ci ing]
+25.7 +24.1 91 +36 +38 очень
душно
1013.5 1011.2
06 19.05 Ю 3 8000 м слаб. ливневой дождь, в посл. час гроза 10/5
[Cb cap As op]
+25.0 +24.4 96 +35 +36 очень
душно
1011.1 1008.7 24
09 19.05 ЮЗ 3 10 км {дождь} 10/5 400 м
[Sc Ac As Ci fib]
+29.6 +23.3 69 +40 +41 очень
душно
1009.5 1007.2 0.0
12 19.05 штиль 0 8000 м {дождь} 9/3 400 м
[Sc Ac As Ci fib]
+27.2 +24.9 87 +39 +39 очень
душно
1010.8 1008.4 +29.6 0.0
15 19.05 штиль 0 7000 м 9/4 400 м
[Sc Ac As Ci fib]
+26.0 +25.1 95 +37 +37 очень
душно
1012.3 1009.9
18 19.05 штиль 0 3000 м дымка 8/3 400 м
[Sc As op Ci fib]
+25.4 +24.5 95 +36 +36 очень
душно
1011.3 1009.0
21 19.05 штиль 0 8000 м 8/3 500 м
[Cu hum As op Ci fib]
+25.0 +24.4 96 +35 +35 очень
душно
1010.6 1008.2
00 20.05 ЮЗ 2 10 км в посл. час гроза 6/4 600 м
[Cb cap Ac trans Ci fib]
+25.8 +22.6 83 +34 +35 очень
душно
1011.9 1009.6 +23.3 24
03 20.05 ЮВ 2 10 км 8/5 400 м
[Cu Sc Ac As Ci fib]
+28.4 +23.8 76 +39 +45 очень
душно
1013.2 1010.8
06 20.05 Ю 5 9000 м 9/5 400 м
[Cb cap Ac As Ci fib]
+27.3 +24.3 84 +38 +41 очень
душно
1012.2 1009.8
09 20.05 Ю 3 10 км {дождь} 10/4 400 м
[Sc As op]
+27.6 +25.3 87 +40 +41 очень
душно
1008.8 1006.5 0.8
12 20.05 штиль 0 10 км {дождь} 8/3 400 м
[Sc Ac trans Ci sp]
+26.8 +25.1 90 +39 +39 очень
душно
1008.6 1006.2 +29.6 0.8
15 20.05 штиль 0 7000 м 8/3 400 м
[Sc As trans Ci fib]
+25.8 +24.9 95 +37 +37 очень
душно
1012.7 1010.4
18 20.05 штиль 0 8000 м 8/3 500 м
[Cu hum As trans Ci fib]
+24.8 +24.2 96 +34 +34 очень
душно
1011.7 1009.3
21 20.05 штиль 0 8000 м 8/3 500 м
[Cu hum As trans Ci fib]
+24.2 +23.6 96 +33 +33 очень
душно
1009.8 1007.4
00 21.05 штиль 0 10 км 6/5 400 м
[Sc diur, vesp Ac trans Ci fib]
+26.0 +25.4 97 +38 +39 очень
душно
1011.1 1008.8 +24.1 0.8
03 21.05 ЮВ 4 10 км 8/6 400 м
[Cu Sc Ac trans Ci fib]
+30.8 +24.9 71 +44 +47 опасность
перегрева
1012.3 1009.9
06 21.05 Ю 6 10 км 8/6 500 м
[Cu med, cong Ac trans Ci fib]
+32.0 +25.0 67 +46 +48 опасность
перегрева
1010.5 1008.1
09 21.05 ЮВ 3 10 км 8/5 500 м
[Cb cap Ac trans Ci fib]
+30.0 +25.2 76 +44 +45 опасность
перегрева
1009.1 1006.7
12 21.05 Ю 3 10 км в посл. час гроза 9/5 400 м
[Cu Sc As trans Ci fib]
+27.2 +24.8 87 +39 +39 очень
душно
1010.2 1007.8 +32.3
15 21.05 штиль 0 8000 м зарница 8/5 500 м
[Cb cap As trans Ci fib]
+26.6 +25.3 93 +39 +39 очень
душно
1012.2 1009.8
18 21.05 штиль 0 9000 м зарница {гроза} 6/4 500 м
[Cb cap Ac und Ci fib]
+26.2 +25.1 94 +38 +38 очень
душно
1011.9 1009.5
21 21.05 штиль 0 9000 м 5/3 500 м
[Cu med, cong Ac und Ci fib]
+25.3 +24.4 95 +35 +35 очень
душно
1010.5 1008.1
00 22.05 В 1 9000 м гроза без осадков 8/5 500 м
[Cb cap Ac trans Ci fib]
+25.5 +24.8 96 +36 +37 очень
душно
1011.2 1008.8 +24.4
03 22.05 Ю 6 2000 м гроза, ливневой дождь 10/6
[Cb cap As op]
+24.0 +22.5 91 +31 +32 очень
душно
1013.5 1011.1 5
06 22.05 Ю 2 8000 м слаб. дождь {гроза} 10/5
[Cb cap As op Cs]
+26.8 +25.5 93 +39 +44 очень
душно
1011.5 1009.1 23
09 22.05 ЮЗ 2 10 км {дождь} 9/3 500 м
[Cu hum Ac lent Cs]
+29.4 +24.4 75 +42 +44 опасность
перегрева
1008.8 1006.4 0.0
12 22.05 штиль 0 9000 м {дождь} 10/3 500 м
[Cu hum Ac trans Cs]
+27.8 +25.4 87 +41 +41 опасность
перегрева
1010.8 1008.5 +29.4 0.0
15 22.05 штиль 0 9000 м 10/3 500 м
[Cu hum Ac As Cs]
+26.4 +25.1 93 +38 +38 очень
душно
1012.5 1010.2
18 22.05 штиль 0 9000 м 10/3 500 м
[Cu hum Ac As Cs]
+26.2 +25.1 94 +38 +38 очень
душно
1012.0 1009.7
21 22.05 штиль 0 9000 м {гроза, дождь} 10/4 500 м
[Cu hum Ac As Cs]
+25.8 +24.7 94 +37 +37 очень
душно
1011.5 1009.2 0.2
00 23.05 штиль 0 10 км {гроза, дождь} 8/3 500 м
[Cu med, cong Ac As Cs]
+25.8 +24.9 95 +37 +38 очень
душно
1013.1 1010.7 +24.0 28
03 23.05 ЮВ 4 10 км 5/3 500 м
[Cu hum Ac trans Ci fib]
+30.0 +24.3 72 +42 +48 опасность
перегрева
1012.5 1010.1
06 23.05 Ю 4 10 км 8/3 500 м
[Cu hum Ac trans Ci fib]
+32.2 +23.6 61 +44 +49 опасность
перегрева
1011.2 1008.8
09 23.05 ЮВ 4 10 км 9/5 400 м
[Cu Sc Ac As Ci fib]
+30.6 +24.7 71 +43 +44 опасность
перегрева
1009.7 1007.3
12 23.05 Ю 2 8000 м 8/3 500 м
[Cu med, cong Ac trans Ci fib]
+28.4 +25.9 86 +42 +42 опасность
перегрева
1010.5 1008.2 +32.2
15 23.05 штиль 0 8000 м в посл. час дождь 8/3 500 м
[Cu med, cong Ac trans Ci fib]
+27.2 +25.5 90 +40 +40 очень
душно
1012.2 1009.8 0.0
18 23.05 штиль 0 8000 м {дождь} 8/3 500 м
[Cu hum Ac trans Ci fib]
+26.4 +25.0 92 +38 +38 очень
душно
1011.5 1009.1 0.0

 

Местоположение метеостанции Танджунгпинанг (Индонезия): широта 0.92 долгота 104.53 высота над уровнем моря 18 м.

В архиве по умолчанию представлена погода в Танджунгпинанге за последнюю неделю. Архивные данные за месяц целиком и за предыдущие месяцы, начиная с января 2011 года, Вы можете получить, выбрав интересующий диапазон дат из раскрывающегося списка и нажав кнопку "Ввод!".


*Определитесь, кто Вы:
робот инопланетянин человек

Внимание! Время в таблицах - всемирное. Для получения местного времени необходимо прибавить поправку, которая равна 7 ч.

Смотрите также архив погоды в соседних городах и на ближайших метеорологических станциях:

Погода в Аэропорту Ханга Надима (Индонезия) (52 км)
Погода в Сингапуре (Сингапур) (79 км)
Погода в Аэропорту Сеная (Малайзия) (124 км)
Погода в Аэропорту Дабо (Индонезия) (156 км)
Погода в Аэропорту Япура (Индонезия) (283 км)
Погода в Малакке (Малайзия) (295 км)
Погода в Джамби (Индонезия) (300 км)
Погода в Таремпе (Индонезия) (318 км)
Погода в Пеканбару (Индонезия) (346 км)
Погода в Куантане (Малайзия) (350 км)

Пояснения к столбцам:

Ветер - указаны скорость ветра в м/с - средняя за 10 мин, порывы в срок и между сроками (в фигурных скобках) и направление, откуда дует ветер: С - северный, СВ - северо-восточный, В - восточный, ЮВ - юго-восточный, Ю - южный, ЮЗ - юго-западный, З - западный, СЗ - северо-западный.
Видимость - горизонтальная дальность видимости в метрах или километрах. При видимости от 1 до 10 км при отсутствии осадков обычно наблюдается дымка, при ухудшении видимости до 1 км и менее - туман. В сухую погоду видимость может ухудшаться дымом, пылью или мглою.
Явления - указаны атмосферные явления, наблюдавшиеся в срок или в последний час перед сроком; фигурными скобками обозначены явления, наблюдавшиеся между сроками (за 1-3 часа до срока); квадратными скобками обозначены град или гололедные отложения с указанием их диаметра в мм.
Облачность - указаны через наклонную черту общая и нижняя облачность в баллах и высота нижней границы облаков в метрах; квадратными скобками обозначены формы облаков: Ci - перистые, Cs - перисто-слоистые, Cc - перисто-кучевые, Ac - высококучевые, As - высокослоистые, Sc - слоисто-кучевые, Ns - слоисто-дождевые, Cu - кучевые, Cb - кучево-дождевые. Подробнее классификацию облаков см. в Атласе облаков (PDF).
T - Температура воздуха - температура, измеренная на высоте 2 м над землей.
Td - Температура точки росы - температура, при понижении до которой содержащийся в воздухе водяной пар достигнет насыщения.
f - Относительная влажность воздуха - влажноcть воздуха, измеренная на высоте 2 м над землей.
Te - Эффективная температура - температура, которую ощущает одетый по сезону человек в тени. Характеристика душности погоды. При расчете учитывается влияние влажности воздуха и скорости ветра на теплоощущения человека.
Tes - Эффективная температура на солнце - температура, которую ощущает человек, с поправкой на солнечный нагрев. Характеристика знойности погоды. Зависит от высоты солнца над горизонтом, облачности и скорости ветра. Ночью, в пасмурную погоду, а также при ветре 12 м/с и более поправка равна нулю.
P - Атмосферное давление - приведенное к уровню моря атмосферное давление.
Po - Атмосферное давление - измеренное на уровне метеостанции атмосферное давление.
Tmin - Минимальная температура - минимум температуры воздуха на высоте 2 м над землей.
Tmax - Максимальная температура - максимум температуры воздуха на высоте 2 м над землей.
R - Количество осадков - Количество выпавших осадков за период времени, мм. При наведении курсора мыши на число - период времени, за который выпало указанное количество осадков.
R24 - Количество осадков - Количество выпавших осадков за 24 часа, мм.
S - Снежный покров - Высота снежного покрова, см. При наведении курсора мыши на число - состояние снежного покрова и степень покрытия местности в баллах.